Time,TemperatureF,DewpointF,PressureIn,WindDirection,WindDirectionDegrees,WindSpeedMPH,WindSpeedGustMPH,Humidity,HourlyPrecipIn,Conditions,Clouds,dailyrainin,SoftwareType,DateUTC
2018-05-24 00:00:00,59.7,52.8,30.15,SSE,159,0.0,0.0,78,0.00,,,0.00,VWS V15.00,2018-05-24 05:00:00,
2018-05-24 00:05:00,59.8,52.7,30.15,SSE,159,0.0,0.0,77,0.00,,,0.00,VWS V15.00,2018-05-24 05:05:00,
2018-05-24 00:10:00,59.9,52.7,30.15,SSE,159,0.0,0.0,77,0.00,,,0.00,VWS V15.00,2018-05-24 05:10:00,
2018-05-24 00:15:00,59.9,52.4,30.15,SSE,159,0.0,0.0,76,0.00,,,0.00,VWS V15.00,2018-05-24 05:15:00,
2018-05-24 00:20:00,59.9,52.4,30.15,SSE,159,0.0,0.0,76,0.00,,,0.00,VWS V15.00,2018-05-24 05:20:00,
2018-05-24 00:25:00,59.8,51.9,30.15,SSE,159,0.0,0.0,75,0.00,,,0.00,VWS V15.00,2018-05-24 05:25:00,
2018-05-24 00:30:00,59.9,52.0,30.15,SSE,159,0.0,0.0,75,0.00,,,0.00,VWS V15.00,2018-05-24 05:30:00,
2018-05-24 00:35:00,59.8,51.9,30.15,SSE,159,0.0,0.0,75,0.00,,,0.00,VWS V15.00,2018-05-24 05:35:00,
2018-05-24 00:40:00,59.8,51.9,30.14,SSE,159,0.0,0.0,75,0.00,,,0.00,VWS V15.00,2018-05-24 05:40:00,
2018-05-24 00:45:00,59.9,51.9,30.14,SSE,159,0.0,0.0,75,0.00,,,0.00,VWS V15.00,2018-05-24 05:45:00,
2018-05-24 00:50:00,59.8,51.8,30.14,SSE,159,0.0,0.0,75,0.00,,,0.00,VWS V15.00,2018-05-24 05:50:00,
2018-05-24 00:55:00,59.7,51.6,30.14,SSE,159,0.0,0.0,75,0.00,,,0.00,VWS V15.00,2018-05-24 05:55:00,
2018-05-24 01:00:00,59.6,51.5,30.14,SSE,159,0.0,0.0,74,0.00,,,0.00,VWS V15.00,2018-05-24 06:00:00,
2018-05-24 01:04:00,59.6,51.3,30.14,SSE,159,0.0,0.0,74,0.00,,,0.00,VWS V15.00,2018-05-24 06:04:00,
2018-05-24 01:05:00,59.6,51.3,30.14,SSE,159,0.0,0.0,74,0.00,,,0.00,VWS V15.00,2018-05-24 06:05:00,
2018-05-24 01:10:00,59.5,50.8,30.14,SSE,159,0.0,0.0,73,0.00,,,0.00,VWS V15.00,2018-05-24 06:10:00,
2018-05-24 01:15:00,59.7,51.3,30.14,SSE,159,0.0,0.0,74,0.00,,,0.00,VWS V15.00,2018-05-24 06:15:00,
2018-05-24 01:20:00,59.7,51.1,30.14,SSE,159,0.0,0.0,73,0.00,,,0.00,VWS V15.00,2018-05-24 06:20:00,
2018-05-24 01:25:00,59.5,50.7,30.13,SSE,159,0.0,0.0,73,0.00,,,0.00,VWS V15.00,2018-05-24 06:25:00,
2018-05-24 01:30:00,59.4,50.8,30.13,SSE,159,0.0,0.0,73,0.00,,,0.00,VWS V15.00,2018-05-24 06:30:00,
2018-05-24 01:35:00,59.4,50.8,30.13,SSE,159,0.0,0.0,73,0.00,,,0.00,VWS V15.00,2018-05-24 06:35:00,
2018-05-24 01:40:00,59.3,50.7,30.13,SSE,159,0.0,0.0,73,0.00,,,0.00,VWS V15.00,2018-05-24 06:40:00,
2018-05-24 01:45:00,59.5,51.1,30.13,SSE,159,0.0,0.0,74,0.00,,,0.00,VWS V15.00,2018-05-24 06:45:00,
2018-05-24 01:50:00,59.5,50.9,30.13,SSE,159,0.0,0.0,73,0.00,,,0.00,VWS V15.00,2018-05-24 06:50:00,
2018-05-24 01:55:00,59.6,50.9,30.13,SSE,159,0.0,0.0,73,0.00,,,0.00,VWS V15.00,2018-05-24 06:55:00,
2018-05-24 02:00:00,59.9,50.8,30.13,SSE,159,0.0,0.0,72,0.00,,,0.00,VWS V15.00,2018-05-24 07:00:00,
2018-05-24 02:05:00,60.3,50.8,30.13,SSE,159,0.0,0.0,71,0.00,,,0.00,VWS V15.00,2018-05-24 07:05:00,
2018-05-24 02:10:00,60.3,50.7,30.13,SSE,159,0.0,0.0,71,0.00,,,0.00,VWS V15.00,2018-05-24 07:10:00,
2018-05-24 02:15:00,60.5,51.0,30.13,SSE,159,0.0,0.0,71,0.00,,,0.00,VWS V15.00,2018-05-24 07:15:00,
2018-05-24 02:20:00,60.5,51.0,30.13,SSE,159,0.0,0.0,71,0.00,,,0.00,VWS V15.00,2018-05-24 07:20:00,
2018-05-24 02:22:00,60.6,51.1,30.13,SSE,159,0.0,0.0,71,0.00,,,0.00,VWS V15.00,2018-05-24 07:22:00,
2018-05-24 02:27:00,60.6,51.0,30.13,SSE,159,0.0,0.0,71,0.00,,,0.00,VWS V15.00,2018-05-24 07:27:00,
2018-05-24 02:32:00,60.7,51.2,30.13,SSE,159,0.0,0.0,71,0.00,,,0.00,VWS V15.00,2018-05-24 07:32:00,
2018-05-24 02:37:00,60.5,51.2,30.13,SSE,159,0.0,0.0,72,0.00,,,0.00,VWS V15.00,2018-05-24 07:37:00,
2018-05-24 02:42:00,60.4,51.5,30.13,SSE,159,0.0,0.0,72,0.00,,,0.00,VWS V15.00,2018-05-24 07:42:00,
2018-05-24 02:47:00,60.3,51.5,30.13,SSE,159,0.0,0.0,73,0.00,,,0.00,VWS V15.00,2018-05-24 07:47:00,
2018-05-24 02:52:00,60.3,51.7,30.13,SSE,159,0.0,0.0,73,0.00,,,0.00,VWS V15.00,2018-05-24 07:52:00,
2018-05-24 02:57:00,60.4,52.0,30.13,SSE,159,0.0,0.0,74,0.00,,,0.00,VWS V15.00,2018-05-24 07:57:00,
2018-05-24 03:02:00,60.1,51.9,30.14,SSE,159,0.0,0.0,74,0.00,,,0.00,VWS V15.00,2018-05-24 08:02:00,
2018-05-24 03:07:00,60.2,52.1,30.14,SSE,159,0.0,0.0,74,0.00,,,0.00,VWS V15.00,2018-05-24 08:07:00,
2018-05-24 03:12:00,60.0,51.8,30.13,SSE,159,0.0,0.0,74,0.00,,,0.00,VWS V15.00,2018-05-24 08:12:00,
2018-05-24 03:17:00,60.0,51.8,30.13,SSE,159,0.0,0.0,74,0.00,,,0.00,VWS V15.00,2018-05-24 08:17:00,
2018-05-24 03:22:00,60.1,51.8,30.13,SSE,159,0.0,0.0,74,0.00,,,0.00,VWS V15.00,2018-05-24 08:22:00,
2018-05-24 03:27:00,60.1,51.8,30.13,SSE,159,0.0,0.0,74,0.00,,,0.00,VWS V15.00,2018-05-24 08:27:00,
2018-05-24 03:32:00,60.1,51.7,30.13,SSE,159,0.0,0.0,74,0.00,,,0.00,VWS V15.00,2018-05-24 08:32:00,
2018-05-24 03:37:00,60.0,51.7,30.13,SSE,159,0.0,0.0,74,0.00,,,0.00,VWS V15.00,2018-05-24 08:37:00,
2018-05-24 03:42:00,59.9,51.6,30.13,SSE,159,0.0,0.0,74,0.00,,,0.00,VWS V15.00,2018-05-24 08:42:00,
2018-05-24 03:47:00,59.8,51.5,30.14,SSE,159,0.0,0.0,74,0.00,,,0.00,VWS V15.00,2018-05-24 08:47:00,
2018-05-24 03:52:00,59.6,51.4,30.14,SSE,159,0.0,0.0,74,0.00,,,0.00,VWS V15.00,2018-05-24 08:52:00,
2018-05-24 03:57:00,59.5,51.4,30.14,SSE,159,0.0,0.0,75,0.00,,,0.00,VWS V15.00,2018-05-24 08:57:00,
2018-05-24 04:03:00,59.5,51.5,30.13,SSE,159,0.0,0.0,75,0.00,,,0.00,VWS V15.00,2018-05-24 09:03:00,
2018-05-24 04:08:00,59.4,51.5,30.13,SSE,159,0.0,0.0,75,0.00,,,0.00,VWS V15.00,2018-05-24 09:08:00,
2018-05-24 04:13:00,59.2,51.5,30.14,SSE,159,0.0,0.0,76,0.00,,,0.00,VWS V15.00,2018-05-24 09:13:00,
2018-05-24 04:14:00,59.3,51.6,30.14,SSE,159,0.0,0.0,76,0.00,,,0.00,VWS V15.00,2018-05-24 09:14:00,
2018-05-24 04:19:00,59.5,51.9,30.14,SSE,159,0.0,0.0,76,0.00,,,0.00,VWS V15.00,2018-05-24 09:19:00,
2018-05-24 04:24:00,59.5,52.0,30.14,SSE,159,0.0,0.0,76,0.00,,,0.00,VWS V15.00,2018-05-24 09:24:00,
2018-05-24 04:29:00,59.4,52.1,30.14,SSE,159,0.0,0.0,77,0.00,,,0.00,VWS V15.00,2018-05-24 09:29:00,
2018-05-24 04:34:00,59.4,52.2,30.14,SSE,159,0.0,0.0,77,0.00,,,0.00,VWS V15.00,2018-05-24 09:34:00,
2018-05-24 04:39:00,59.2,52.1,30.14,SSE,159,0.0,0.0,77,0.00,,,0.00,VWS V15.00,2018-05-24 09:39:00,
2018-05-24 04:44:00,59.1,52.2,30.15,SSE,159,0.0,0.0,78,0.00,,,0.00,VWS V15.00,2018-05-24 09:44:00,
2018-05-24 04:49:00,59.0,52.2,30.15,SSE,159,0.0,0.0,78,0.00,,,0.00,VWS V15.00,2018-05-24 09:49:00,
2018-05-24 04:54:00,58.9,52.2,30.15,SSE,159,0.0,0.0,78,0.00,,,0.00,VWS V15.00,2018-05-24 09:54:00,
2018-05-24 04:59:00,58.8,52.2,30.15,SSE,159,0.0,0.0,79,0.00,,,0.00,VWS V15.00,2018-05-24 09:59:00,
2018-05-24 05:04:00,58.7,52.2,30.15,SSE,159,0.0,0.0,79,0.00,,,0.00,VWS V15.00,2018-05-24 10:04:00,
2018-05-24 05:09:00,58.8,52.5,30.15,SSE,159,0.0,0.0,79,0.00,,,0.00,VWS V15.00,2018-05-24 10:09:00,
2018-05-24 05:14:00,58.7,52.6,30.15,SSE,159,0.0,0.0,80,0.00,,,0.00,VWS V15.00,2018-05-24 10:14:00,
2018-05-24 05:20:00,58.7,52.7,30.15,SSE,159,0.0,0.0,80,0.00,,,0.00,VWS V15.00,2018-05-24 10:20:00,
2018-05-24 05:25:00,58.6,52.7,30.15,SSE,159,0.0,0.0,81,0.00,,,0.00,VWS V15.00,2018-05-24 10:25:00,
2018-05-24 05:30:00,58.5,52.6,30.15,SSE,159,0.0,0.0,81,0.00,,,0.00,VWS V15.00,2018-05-24 10:30:00,
2018-05-24 05:35:00,58.5,52.7,30.15,SSE,159,0.0,0.0,81,0.00,,,0.00,VWS V15.00,2018-05-24 10:35:00,
2018-05-24 05:40:00,58.4,52.7,30.16,SSE,159,0.0,0.0,81,0.00,,,0.00,VWS V15.00,2018-05-24 10:40:00,
2018-05-24 05:45:00,58.7,53.1,30.16,SSE,159,0.0,0.0,82,0.00,,,0.00,VWS V15.00,2018-05-24 10:45:00,
2018-05-24 05:50:00,58.7,53.1,30.16,SSE,159,0.0,0.0,82,0.00,,,0.00,VWS V15.00,2018-05-24 10:50:00,
2018-05-24 05:55:00,58.7,53.1,30.16,SSE,159,0.0,0.0,82,0.00,,,0.00,VWS V15.00,2018-05-24 10:55:00,
2018-05-24 06:00:00,58.7,53.2,30.16,SSE,159,0.0,0.0,82,0.00,,,0.00,VWS V15.00,2018-05-24 11:00:00,
2018-05-24 06:05:00,59.1,53.5,30.16,SSE,159,0.0,0.0,82,0.00,,,0.00,VWS V15.00,2018-05-24 11:05:00,
2018-05-24 06:10:00,59.4,53.7,30.16,SSE,159,0.0,0.0,81,0.00,,,0.00,VWS V15.00,2018-05-24 11:10:00,
2018-05-24 06:16:00,59.7,53.7,30.16,SSE,159,0.0,0.0,81,0.00,,,0.00,VWS V15.00,2018-05-24 11:16:00,
2018-05-24 06:21:00,60.3,54.1,30.17,SSE,159,0.0,0.0,80,0.00,,,0.00,VWS V15.00,2018-05-24 11:21:00,
2018-05-24 06:26:00,60.6,54.0,30.17,SSE,159,0.0,0.0,79,0.00,,,0.00,VWS V15.00,2018-05-24 11:26:00,
2018-05-24 06:31:00,61.0,54.1,30.17,SSE,159,0.0,0.0,78,0.00,,,0.00,VWS V15.00,2018-05-24 11:31:00,
2018-05-24 06:36:00,61.6,54.1,30.17,SSE,159,0.0,0.0,76,0.00,,,0.00,VWS V15.00,2018-05-24 11:36:00,
2018-05-24 06:41:00,62.5,54.5,30.17,SSE,159,0.0,0.0,75,0.00,,,0.00,VWS V15.00,2018-05-24 11:41:00,
2018-05-24 06:46:00,63.0,54.3,30.17,SSE,159,0.0,0.0,73,0.00,,,0.00,VWS V15.00,2018-05-24 11:46:00,
2018-05-24 06:51:00,63.4,54.6,30.18,SSE,159,0.0,0.0,73,0.00,,,0.00,VWS V15.00,2018-05-24 11:51:00,
2018-05-24 06:56:00,63.9,54.6,30.18,SSE,159,0.0,0.0,72,0.00,,,0.00,VWS V15.00,2018-05-24 11:56:00,
2018-05-24 07:01:00,64.4,54.4,30.18,SSE,159,0.0,0.0,70,0.00,,,0.00,VWS V15.00,2018-05-24 12:01:00,
2018-05-24 07:06:00,65.2,54.7,30.18,SSE,159,0.0,0.0,69,0.00,,,0.00,VWS V15.00,2018-05-24 12:06:00,
2018-05-24 07:11:00,65.6,54.0,30.18,SE,138,2.5,2.9,66,0.00,,,0.00,VWS V15.00,2018-05-24 12:11:00,
2018-05-24 07:16:00,66.1,54.1,30.18,SSW,201,1.7,1.7,65,0.00,,,0.00,VWS V15.00,2018-05-24 12:16:00,
2018-05-24 07:21:00,66.7,54.7,30.18,South,174,0.0,0.0,65,0.00,,,0.00,VWS V15.00,2018-05-24 12:21:00,
2018-05-24 07:26:00,67.3,54.8,30.18,SSE,156,0.0,0.0,64,0.00,,,0.00,VWS V15.00,2018-05-24 12:26:00,
2018-05-24 07:31:00,67.9,54.7,30.18,South,176,0.0,0.0,63,0.00,,,0.00,VWS V15.00,2018-05-24 12:31:00,
2018-05-24 07:36:00,68.2,53.6,30.18,WSW,240,2.9,4.7,60,0.00,,,0.00,VWS V15.00,2018-05-24 12:36:00,
2018-05-24 07:41:00,68.7,53.3,30.18,South,177,1.6,2.8,58,0.00,,,0.00,VWS V15.00,2018-05-24 12:41:00,
2018-05-24 07:46:00,69.2,52.6,30.18,SSW,204,4.6,5.0,55,0.00,,,0.00,VWS V15.00,2018-05-24 12:46:00,
2018-05-24 07:51:00,69.8,52.5,30.18,South,170,1.6,3.0,54,0.00,,,0.00,VWS V15.00,2018-05-24 12:51:00,
2018-05-24 07:56:00,70.3,52.6,30.18,South,187,0.0,1.2,53,0.00,,,0.00,VWS V15.00,2018-05-24 12:56:00,
2018-05-24 08:01:00,70.7,52.7,30.18,South,180,0.0,0.0,53,0.00,,,0.00,VWS V15.00,2018-05-24 13:01:00,
2018-05-24 08:06:00,71.2,52.2,30.18,West,280,0.0,0.0,51,0.00,,,0.00,VWS V15.00,2018-05-24 13:06:00,
2018-05-24 08:11:00,71.7,51.9,30.18,WSW,248,3.1,3.4,50,0.00,,,0.00,VWS V15.00,2018-05-24 13:11:00,
2018-05-24 08:17:00,72.2,51.7,30.18,SSE,148,1.2,4.8,48,0.00,,,0.00,VWS V15.00,2018-05-24 13:17:00,
2018-05-24 08:22:00,72.3,51.5,30.18,ENE,75,3.7,5.7,48,0.00,,,0.00,VWS V15.00,2018-05-24 13:22:00,
2018-05-24 08:27:00,72.9,52.3,30.18,SSE,160,0.7,1.7,48,0.00,,,0.00,VWS V15.00,2018-05-24 13:27:00,
2018-05-24 08:32:00,73.1,51.2,30.18,SSW,212,6.0,7.4,46,0.00,,,0.00,VWS V15.00,2018-05-24 13:32:00,
2018-05-24 08:37:00,73.4,51.7,30.17,SSW,197,6.4,7.5,46,0.00,,,0.00,VWS V15.00,2018-05-24 13:37:00,
2018-05-24 08:42:00,74.0,51.9,30.18,SSW,200,6.1,6.8,46,0.00,,,0.00,VWS V15.00,2018-05-24 13:42:00,
2018-05-24 08:47:00,74.2,51.0,30.17,South,172,3.0,6.2,44,0.00,,,0.00,VWS V15.00,2018-05-24 13:47:00,
2018-05-24 08:52:00,74.8,51.2,30.17,South,177,1.8,2.7,44,0.00,,,0.00,VWS V15.00,2018-05-24 13:52:00,
2018-05-24 08:57:00,75.4,51.3,30.17,SSW,205,0.5,3.5,43,0.00,,,0.00,VWS V15.00,2018-05-24 13:57:00,
2018-05-24 09:02:00,75.5,51.0,30.17,WSW,255,5.3,6.8,42,0.00,,,0.00,VWS V15.00,2018-05-24 14:02:00,
2018-05-24 09:07:00,76.0,51.7,30.16,SE,146,0.0,1.1,43,0.00,,,0.00,VWS V15.00,2018-05-24 14:07:00,
2018-05-24 09:12:00,76.2,50.9,30.16,SSE,152,2.1,3.9,41,0.00,,,0.00,VWS V15.00,2018-05-24 14:12:00,
2018-05-24 09:17:00,76.5,50.3,30.16,SSE,163,4.3,6.7,40,0.00,,,0.00,VWS V15.00,2018-05-24 14:17:00,
2018-05-24 09:22:00,76.6,49.9,30.16,SW,225,7.8,8.3,39,0.00,,,0.00,VWS V15.00,2018-05-24 14:22:00,
2018-05-24 09:27:00,76.8,50.6,30.16,SSE,149,2.9,3.9,40,0.00,,,0.00,VWS V15.00,2018-05-24 14:27:00,
2018-05-24 09:32:00,76.8,49.8,30.15,SE,124,4.0,6.5,39,0.00,,,0.00,VWS V15.00,2018-05-24 14:32:00,
2018-05-24 09:37:00,77.3,49.9,30.15,SE,138,7.1,7.1,38,0.00,,,0.00,VWS V15.00,2018-05-24 14:37:00,
2018-05-24 09:42:00,77.8,50.2,30.15,SE,146,4.5,4.5,38,0.00,,,0.00,VWS V15.00,2018-05-24 14:42:00,
2018-05-24 09:47:00,77.9,49.7,30.15,South,191,5.8,6.0,37,0.00,,,0.00,VWS V15.00,2018-05-24 14:47:00,
2018-05-24 09:52:00,78.1,50.9,30.15,South,186,2.4,4.3,39,0.00,,,0.00,VWS V15.00,2018-05-24 14:52:00,
2018-05-24 09:57:00,78.1,49.2,30.15,SSW,198,1.9,5.0,36,0.00,,,0.00,VWS V15.00,2018-05-24 14:57:00,
2018-05-24 10:02:00,78.3,49.8,30.15,SSW,198,5.5,7.0,37,0.00,,,0.00,VWS V15.00,2018-05-24 15:02:00,
2018-05-24 10:07:00,78.3,47.9,30.15,South,169,4.0,10.4,34,0.00,,,0.00,VWS V15.00,2018-05-24 15:07:00,
2018-05-24 10:12:00,78.9,49.0,30.14,SW,235,4.0,5.9,35,0.00,,,0.00,VWS V15.00,2018-05-24 15:12:00,
2018-05-24 10:17:00,79.3,49.4,30.14,West,260,1.1,3.4,35,0.00,,,0.00,VWS V15.00,2018-05-24 15:17:00,
2018-05-24 10:22:00,80.0,48.7,30.14,West,262,5.1,7.6,33,0.00,,,0.00,VWS V15.00,2018-05-24 15:22:00,
2018-05-24 10:27:00,79.5,47.4,30.14,SE,134,6.7,8.1,32,0.00,,,0.00,VWS V15.00,2018-05-24 15:27:00,
2018-05-24 10:32:00,80.0,49.1,30.14,SSW,210,3.2,6.9,34,0.00,,,0.00,VWS V15.00,2018-05-24 15:32:00,
2018-05-24 10:37:00,80.0,50.4,30.14,SW,215,2.8,5.9,36,0.00,,,0.00,VWS V15.00,2018-05-24 15:37:00,
2018-05-24 10:42:00,79.7,51.5,30.13,SSE,167,3.4,4.9,38,0.00,,,0.00,VWS V15.00,2018-05-24 15:42:00,
2018-05-24 10:47:00,79.5,52.0,30.13,ENE,73,4.0,5.3,38,0.00,,,0.00,VWS V15.00,2018-05-24 15:47:00,
2018-05-24 10:52:00,79.1,52.1,30.13,East,94,3.6,4.2,39,0.00,,,0.00,VWS V15.00,2018-05-24 15:52:00,
2018-05-24 10:57:00,79.2,52.0,30.13,SE,136,4.3,5.8,39,0.00,,,0.00,VWS V15.00,2018-05-24 15:57:00,
2018-05-24 11:02:00,79.4,51.0,30.13,SSW,207,2.7,4.9,37,0.00,,,0.00,VWS V15.00,2018-05-24 16:02:00,
2018-05-24 11:07:00,79.7,52.2,30.13,NE,48,1.1,7.4,38,0.00,,,0.00,VWS V15.00,2018-05-24 16:07:00,
2018-05-24 11:12:00,79.7,51.8,30.13,East,87,3.4,4.6,38,0.00,,,0.00,VWS V15.00,2018-05-24 16:12:00,
2018-05-24 11:17:00,79.3,51.4,30.13,ESE,117,4.7,6.2,38,0.00,,,0.00,VWS V15.00,2018-05-24 16:17:00,
2018-05-24 11:22:00,79.4,51.4,30.13,SE,128,7.0,7.6,38,0.00,,,0.00,VWS V15.00,2018-05-24 16:22:00,
2018-05-24 11:27:00,79.7,50.8,30.12,East,96,3.2,5.2,36,0.00,,,0.00,VWS V15.00,2018-05-24 16:27:00,
2018-05-24 11:32:00,79.7,51.2,30.13,East,101,5.3,5.3,37,0.00,,,0.00,VWS V15.00,2018-05-24 16:32:00,
2018-05-24 11:37:00,79.8,51.4,30.12,ESE,121,1.9,2.1,37,0.00,,,0.00,VWS V15.00,2018-05-24 16:37:00,
2018-05-24 11:42:00,80.3,51.7,30.13,East,84,7.0,8.3,37,0.00,,,0.00,VWS V15.00,2018-05-24 16:42:00,
2018-05-24 11:47:00,80.2,51.2,30.12,East,94,7.1,8.3,36,0.00,,,0.00,VWS V15.00,2018-05-24 16:47:00,
2018-05-24 11:52:00,80.4,50.4,30.12,SE,127,4.2,8.0,35,0.00,,,0.00,VWS V15.00,2018-05-24 16:52:00,
2018-05-24 11:57:00,79.9,49.9,30.12,ESE,122,5.4,8.9,35,0.00,,,0.00,VWS V15.00,2018-05-24 16:57:00,
2018-05-24 12:02:00,80.1,50.2,30.12,SE,129,5.2,8.1,35,0.00,,,0.00,VWS V15.00,2018-05-24 17:02:00,
2018-05-24 12:07:00,80.0,50.8,30.12,SE,127,6.4,6.4,36,0.00,,,0.00,VWS V15.00,2018-05-24 17:07:00,
2018-05-24 12:12:00,79.7,50.2,30.11,ESE,110,7.6,8.3,36,0.00,,,0.00,VWS V15.00,2018-05-24 17:12:00,
2018-05-24 12:17:00,79.8,49.8,30.11,ENE,62,7.6,10.7,35,0.00,,,0.00,VWS V15.00,2018-05-24 17:17:00,
2018-05-24 12:22:00,79.7,49.7,30.11,ESE,110,3.5,6.6,35,0.00,,,0.00,VWS V15.00,2018-05-24 17:22:00,
2018-05-24 12:27:00,79.4,49.8,30.11,ENE,77,7.6,7.6,36,0.00,,,0.00,VWS V15.00,2018-05-24 17:27:00,
2018-05-24 12:32:00,79.4,49.5,30.10,NNE,30,1.4,8.3,35,0.00,,,0.00,VWS V15.00,2018-05-24 17:32:00,
2018-05-24 12:37:00,79.4,49.5,30.10,SE,131,4.2,7.5,35,0.00,,,0.00,VWS V15.00,2018-05-24 17:37:00,
2018-05-24 12:42:00,79.8,50.7,30.10,ESE,112,2.9,5.0,36,0.00,,,0.00,VWS V15.00,2018-05-24 17:42:00,
2018-05-24 12:47:00,79.7,50.3,30.10,East,93,5.4,8.3,36,0.00,,,0.00,VWS V15.00,2018-05-24 17:47:00,
2018-05-24 12:52:00,79.3,49.0,30.10,SSE,156,7.8,13.7,35,0.00,,,0.00,VWS V15.00,2018-05-24 17:52:00,
2018-05-24 12:57:00,79.3,49.8,30.09,SE,138,2.8,6.3,36,0.00,,,0.00,VWS V15.00,2018-05-24 17:57:00,
2018-05-24 13:02:00,79.5,49.9,30.09,SE,128,3.7,6.4,36,0.00,,,0.00,VWS V15.00,2018-05-24 18:02:00,
2018-05-24 13:07:00,79.8,49.7,30.09,SW,221,4.6,6.9,35,0.00,,,0.00,VWS V15.00,2018-05-24 18:07:00,
2018-05-24 13:12:00,79.8,49.7,30.09,ENE,75,10.1,10.4,35,0.00,,,0.00,VWS V15.00,2018-05-24 18:12:00,
2018-05-24 13:17:00,79.4,49.9,30.08,ESE,110,7.5,7.5,36,0.00,,,0.00,VWS V15.00,2018-05-24 18:17:00,
2018-05-24 13:22:00,79.4,48.2,30.08,ESE,108,8.9,10.6,34,0.00,,,0.00,VWS V15.00,2018-05-24 18:22:00,
2018-05-24 13:27:00,79.0,49.0,30.08,ESE,117,8.4,11.2,35,0.00,,,0.00,VWS V15.00,2018-05-24 18:27:00,
2018-05-24 13:32:00,79.3,50.0,30.08,SE,139,8.1,11.8,36,0.00,,,0.00,VWS V15.00,2018-05-24 18:32:00,
2018-05-24 13:37:00,79.7,50.1,30.08,SSE,149,3.5,7.7,36,0.00,,,0.00,VWS V15.00,2018-05-24 18:37:00,
2018-05-24 13:42:00,80.4,50.3,30.08,SE,143,5.5,6.3,35,0.00,,,0.00,VWS V15.00,2018-05-24 18:42:00,
2018-05-24 13:47:00,79.8,49.7,30.07,East,80,5.5,9.8,35,0.00,,,0.00,VWS V15.00,2018-05-24 18:47:00,
2018-05-24 13:52:00,79.5,50.4,30.07,East,82,8.1,9.7,36,0.00,,,0.00,VWS V15.00,2018-05-24 18:52:00,
2018-05-24 13:57:00,79.4,49.5,30.07,SE,141,7.7,11.4,35,0.00,,,0.00,VWS V15.00,2018-05-24 18:57:00,
2018-05-24 14:02:00,79.7,50.1,30.06,SSE,148,2.1,4.2,36,0.00,,,0.00,VWS V15.00,2018-05-24 19:02:00,
2018-05-24 14:06:00,79.7,49.4,30.06,ENE,77,6.5,9.6,35,0.00,,,0.00,VWS V15.00,2018-05-24 19:06:00,
2018-05-24 14:11:00,79.8,49.7,30.06,SE,124,4.2,6.2,35,0.00,,,0.00,VWS V15.00,2018-05-24 19:11:00,
2018-05-24 14:16:00,79.5,49.6,30.06,ENE,62,5.0,9.8,35,0.00,,,0.00,VWS V15.00,2018-05-24 19:16:00,
2018-05-24 14:21:00,79.3,49.5,30.06,East,94,10.4,10.4,35,0.00,,,0.00,VWS V15.00,2018-05-24 19:21:00,
2018-05-24 14:26:00,79.5,49.9,30.06,NNE,15,1.6,7.4,36,0.00,,,0.00,VWS V15.00,2018-05-24 19:26:00,
2018-05-24 14:31:00,79.8,49.4,30.06,SE,136,5.5,8.6,35,0.00,,,0.00,VWS V15.00,2018-05-24 19:31:00,
2018-05-24 14:36:00,79.9,50.3,30.06,ESE,121,6.0,8.0,36,0.00,,,0.00,VWS V15.00,2018-05-24 19:36:00,
2018-05-24 14:41:00,79.5,49.6,30.06,East,82,3.4,7.9,35,0.00,,,0.00,VWS V15.00,2018-05-24 19:41:00,
2018-05-24 14:46:00,80.0,49.7,30.06,East,97,7.8,7.8,35,0.00,,,0.00,VWS V15.00,2018-05-24 19:46:00,
2018-05-24 14:51:00,80.3,49.8,30.06,SSE,158,6.1,10.1,34,0.00,,,0.00,VWS V15.00,2018-05-24 19:51:00,
2018-05-24 14:56:00,80.0,49.5,30.05,South,186,5.3,9.4,34,0.00,,,0.00,VWS V15.00,2018-05-24 19:56:00,
2018-05-24 15:01:00,79.9,49.6,30.05,ESE,110,3.8,8.1,35,0.00,,,0.00,VWS V15.00,2018-05-24 20:01:00,
2018-05-24 15:06:00,79.5,49.3,30.05,East,87,7.8,10.1,35,0.00,,,0.00,VWS V15.00,2018-05-24 20:06:00,
2018-05-24 15:11:00,79.2,48.8,30.05,ESE,115,9.3,11.9,34,0.00,,,0.00,VWS V15.00,2018-05-24 20:11:00,
2018-05-24 15:16:00,79.3,49.9,30.05,East,90,2.2,7.9,36,0.00,,,0.00,VWS V15.00,2018-05-24 20:16:00,
2018-05-24 15:21:00,79.3,49.3,30.05,ESE,107,4.2,7.8,35,0.00,,,0.00,VWS V15.00,2018-05-24 20:21:00,
2018-05-24 15:26:00,79.7,49.3,30.05,SSE,148,4.2,6.7,34,0.00,,,0.00,VWS V15.00,2018-05-24 20:26:00,
2018-05-24 15:31:00,79.7,49.4,30.05,ESE,114,3.9,8.6,35,0.00,,,0.00,VWS V15.00,2018-05-24 20:31:00,
2018-05-24 15:36:00,80.2,49.7,30.04,ESE,110,5.0,6.3,34,0.00,,,0.00,VWS V15.00,2018-05-24 20:36:00,
2018-05-24 15:41:00,80.2,49.4,30.04,ENE,59,5.6,8.9,34,0.00,,,0.00,VWS V15.00,2018-05-24 20:41:00,
2018-05-24 15:46:00,80.4,49.0,30.04,NE,55,4.0,6.4,33,0.00,,,0.00,VWS V15.00,2018-05-24 20:46:00,
2018-05-24 15:51:00,80.4,49.1,30.03,SE,146,2.7,4.9,34,0.00,,,0.00,VWS V15.00,2018-05-24 20:51:00,
2018-05-24 15:56:00,80.4,48.8,30.03,South,180,4.6,7.6,33,0.00,,,0.00,VWS V15.00,2018-05-24 20:56:00,
2018-05-24 16:01:00,80.7,48.9,30.03,ESE,104,4.0,6.7,33,0.00,,,0.00,VWS V15.00,2018-05-24 21:01:00,
2018-05-24 16:06:00,81.2,48.5,30.03,SE,145,4.2,8.9,32,0.00,,,0.00,VWS V15.00,2018-05-24 21:06:00,
2018-05-24 16:11:00,80.4,48.1,30.03,East,94,7.3,7.9,32,0.00,,,0.00,VWS V15.00,2018-05-24 21:11:00,
2018-05-24 16:16:00,80.4,48.5,30.02,ESE,121,4.7,8.1,33,0.00,,,0.00,VWS V15.00,2018-05-24 21:16:00,
2018-05-24 16:21:00,80.1,48.4,30.02,ESE,103,4.0,6.0,33,0.00,,,0.00,VWS V15.00,2018-05-24 21:21:00,
2018-05-24 16:26:00,80.1,49.2,30.02,ESE,112,4.7,5.0,34,0.00,,,0.00,VWS V15.00,2018-05-24 21:26:00,
2018-05-24 16:31:00,80.1,48.4,30.02,ESE,103,6.5,7.8,33,0.00,,,0.00,VWS V15.00,2018-05-24 21:31:00,
2018-05-24 16:36:00,80.1,49.0,30.02,SE,132,7.6,7.6,34,0.00,,,0.00,VWS V15.00,2018-05-24 21:36:00,
2018-05-24 16:41:00,79.5,48.3,30.02,East,83,7.0,8.9,34,0.00,,,0.00,VWS V15.00,2018-05-24 21:41:00,
2018-05-24 16:46:00,79.5,48.9,30.02,SE,125,6.3,6.3,34,0.00,,,0.00,VWS V15.00,2018-05-24 21:46:00,
2018-05-24 16:51:00,79.3,48.5,30.01,SE,142,6.1,6.1,34,0.00,,,0.00,VWS V15.00,2018-05-24 21:51:00,
2018-05-24 16:56:00,79.1,48.0,30.01,ESE,121,7.4,9.9,34,0.00,,,0.00,VWS V15.00,2018-05-24 21:56:00,
2018-05-24 17:01:00,79.4,48.1,30.01,East,94,4.3,8.0,33,0.00,,,0.00,VWS V15.00,2018-05-24 22:01:00,
2018-05-24 17:06:00,79.2,48.0,30.01,SE,125,7.5,9.1,34,0.00,,,0.00,VWS V15.00,2018-05-24 22:06:00,
2018-05-24 17:11:00,79.2,48.6,30.01,East,100,3.0,6.6,34,0.00,,,0.00,VWS V15.00,2018-05-24 22:11:00,
2018-05-24 17:16:00,79.2,48.4,30.00,SSE,162,0.4,6.5,34,0.00,,,0.00,VWS V15.00,2018-05-24 22:16:00,
2018-05-24 17:21:00,79.1,48.8,30.00,ESE,104,5.9,5.9,35,0.00,,,0.00,VWS V15.00,2018-05-24 22:21:00,
2018-05-24 17:26:00,79.0,48.8,30.00,ENE,69,4.7,4.7,35,0.00,,,0.00,VWS V15.00,2018-05-24 22:26:00,
2018-05-24 17:31:00,79.3,48.8,30.00,NE,39,5.7,7.3,34,0.00,,,0.00,VWS V15.00,2018-05-24 22:31:00,
2018-05-24 17:36:00,79.7,48.6,30.00,SE,132,2.9,4.8,34,0.00,,,0.00,VWS V15.00,2018-05-24 22:36:00,